Location: Asheville, NC
(35.6000°N, 82.5500°W)
Time: 01:27:39
(UTC-05:00)

KAITUO 1B - Pass Details

Date: 14 February 2018
Orbit: 499 x 522 km, 97.5° (Epoch: 23 February)

Event Time Altitude Azimuth Distance (km) Brightness Sun altitude
Rises 06:15:35 0° 22° (NNE) 2,598 ? -13.3°
Reaches altitude 10° 06:17:49 10° 33° (NNE) 1,713 ? -12.8°
Maximum altitude 06:21:09 32° 98° (E) 884 ? -12.2°
Drops below altitude 10° 06:24:29 10° 162° (SSE) 1,712 ? -11.5°
Sets 06:26:43 0° 173° (S) 2,597 ? -11.0°
